Regional Weather Roundup
Issued by NWS

Home | Current Version | Previous Version | Graphics & Text | Print | Product List | Glossary On
Versions: 1 2 3 4 5 6 7 8 9 10 11 12 13 14 15 16 17 18 19 20 21 22 23 24 25 26 27 28 29 30 31 32 33 34 35 36 37 38 39 40 41 42 43 44 45 46 47 48 49 50
000
ASUS43 KIND 211259
RWRIN

WEATHER ROUNDUP FOR INDIANA
NATIONAL WEATHER SERVICE INDIANAPOLIS IN
900 AM EDT THU AUG 21 2014

NOTE: "FAIR" INDICATES FEW OR NO CLOUDS BELOW 12,000 FEET WITH NO
SIGNIFICANT WEATHER AND/OR OBSTRUCTIONS TO VISIBILITY.

* - STATION DOES NOT REPORT WEATHER SUCH AS PRECIPITATION OR FOG.

+ - STATION NOT QUALITY CONTROLLED BY THE NATIONAL WEATHER SERVICE.
    USE DATA WITH CAUTION...ESPECIALLY DEWPOINT AND RELATIVE
    HUMIDITY OBSERVATIONS.

INZ001>003-010>013-019-020-211400-
NORTHWEST INDIANA

CITY           SKY/WX    TMP DP  RH WIND       PRES   REMARKS
KNOX *+        CLOUDY    69  67  92 S3        29.98S
MONTICELLO +   CLOUDY    71  70  96 S6        29.98R
VALPARAISO     LGT RAIN  69  68  96 SW10      30.00R

$$

LMZ046-743>745-211400-
SOUTHERN LAKE MICHIGAN

STATION/POSITION TIME  TEMP WIND        PRES
                       AIR  DIR/SP/G
                 (UTC) (F)  (DEG/KT/KT) (MB)
BURNS HARBOR     1200   71  200/  8/ 17   N/A
MICHIGAN CITY    1200   71  170/ 14/ 18   N/A

$$

INZ004-005-014>016-021>024-211400-
NORTH CENTRAL INDIANA

CITY           SKY/WX    TMP DP  RH WIND       PRES   REMARKS
ELKHART        CLOUDY    72  66  83 SW5       29.99R
GOSHEN         CLOUDY    73  67  81 W3        29.99R
PERU/GRISSOM   TSTM      70  70 100 S9        30.00R
SOUTH BEND     CLOUDY    71  66  84 S3        29.98R
WARSAW +       CLOUDY    70  68  94 CALM      30.00R

$$

INZ006>009-017-018-025>027-211400-
NORTHEAST INDIANA

CITY           SKY/WX    TMP DP  RH WIND       PRES   REMARKS
ANGOLA *+      SUNNY     75  68  78 W3        29.98R
FORT WAYNE     CLOUDY    71  68  90 S7        30.01R

$$

INZ028-029-035-036-043>045-051>053-211400-
WEST CENTRAL INDIANA

CITY           SKY/WX    TMP DP  RH WIND       PRES   REMARKS
GREENCASTLE +  MOSUNNY   70  68  94 S3        30.02R
LAFAYETTE      LGT RAIN  70  69  97 S5        29.99R
TERRE HAUTE    SUNNY     73  68  84 S6        30.01R

$$

INZ030>032-037>040-046>048-054>057-064-065-211400-
CENTRAL INDIANA

CITY           SKY/WX    TMP DP  RH WIND       PRES   REMARKS
FRANKFORT +    PTSUNNY  N/A N/A N/A CALM      30.01S
INDIANAPOLIS   LGT RAIN  71  68  90 S9        30.00R
-EAGLE CREEK   LGT RAIN  70  67  90 CALM      30.00F
KOKOMO *+      CLOUDY    70  66  88 S6        30.02S
MT COMFORT *+  CLOUDY    70 N/A N/A S6        30.04R VSB 3/4
SHELBYVILLE    LGT RAIN  72  32  23 SE8       30.02F

$$

INZ033-034-041-042-049-050-058-059-211400-
EAST CENTRAL INDIANA

CITY           SKY/WX    TMP DP  RH WIND       PRES   REMARKS
MUNCIE         TSTM      71  68  90 SW9       30.05R FOG

$$

INZ060-061-067>069-081>083-085>088-211400-
SOUTHWEST INDIANA

CITY           SKY/WX    TMP DP  RH WIND       PRES   REMARKS
EVANSVILLE     MOSUNNY   76  71  85 SW8       30.04R

$$

INZ062-063-066-070>080-084-089>092-211400-
SOUTH CENTRAL AND SOUTHEAST INDIANA

CITY           SKY/WX    TMP DP  RH WIND       PRES   REMARKS
BLOOMINGTON    PTSUNNY   71  68  90 S3        30.03R

$$



USA.gov is the U.S. government's official web portal to all federal, state and local government web resources and services.